Regional Weather Roundup
Issued by NWS

Home | Current Version | Previous Version | Graphics & Text | Print | Product List | Glossary On
Versions: 1 2 3 4 5 6 7 8 9 10 11 12 13 14 15 16 17 18 19 20 21 22 23 24 25 26 27 28 29 30 31 32 33 34 35 36 37 38 39 40 41 42 43 44 45 46 47 48 49 50
000
ASUS43 KMKX 210521
RWRWI

WISCONSIN REGIONAL WEATHER ROUNDUP
NATIONAL WEATHER SERVICE MILWAUKEE/SULLIVAN WI
1200 AM CDT TUE OCT 21 2014

NOTE: "FAIR" INDICATES FEW OR NO CLOUDS BELOW 12,000 FEET WITH NO
SIGNIFICANT WEATHER AND/OR OBSTRUCTIONS TO VISIBILITY.

WIZ001-002-006>008-014>016-023>028-210600-
NORTHWEST WISCONSIN

CITY           SKY/WX    TMP DP  RH WIND       PRES   REMARKS
SUPERIOR ARPT  CLOUDY    48  38  69 E8        30.12S
ASHLAND        CLOUDY    44  37  76 E10       30.14R
HAYWARD        CLOUDY    46  39  76 NE5       30.11R
SIREN          MOCLDY    45  38  76 CALM      30.11R
CUMBERLAND     CLOUDY    45  37  76 NE6       30.09S
RICE LAKE      CLOUDY    45  40  81 N5        30.10S
CHETEK         PTCLDY    41  40  97 N5        30.09S
LADYSMITH      CLOUDY    47  39  75 N6        30.10S
EAU CLAIRE     CLEAR     41  36  82 NE3       30.07S
MENOMONIE      CLEAR     42  38  83 CALM      30.08S
NEW RICHMOND   CLEAR     36  35  99 N3        30.09S
OSCEOLA        CLEAR     35  35 100 CALM      30.12S
$$

WIZ003>005-009-010-017-018-210600-
NORTH CENTRAL WISCONSIN

CITY           SKY/WX    TMP DP  RH WIND       PRES   REMARKS
MANITOWISH WTR DRIZZLE   39  39  99 NE6       30.10R
ARBOR VITAE    CLOUDY    42  38  89 NE9       30.09S
WOODRUFF       CLOUDY    42  38  89 NE9       30.09S
RHINELANDER    MOCLDY    39  37  92 VRB3      30.08S
EAGLE RIVER    CLOUDY    39  37  90 N8        30.07F WCI  34
LAND O LAKES   CLOUDY    40  36  87 N7        30.09S WCI  35
PHILLIPS       CLOUDY    43  40  89 NE7       30.09R
TOMAHAWK       CLOUDY    41  37  83 N3        30.09R
MEDFORD        CLOUDY    44  39  82 N6        30.07S
MERRILL        CLOUDY    43  39  86 NE7       30.07S
$$

WIZ029-030-035-036-043>047-210600-
CENTRAL WISCONSIN

CITY           SKY/WX    TMP DP  RH WIND       PRES   REMARKS
WAUSAU         CLOUDY    44  39  82 NE6       30.06R
MOSINEE        CLOUDY    43  41  93 NE7       30.07S
MARSHFIELD     CLOUDY    48  40  73 N5        30.06S
STEVENS POINT  CLOUDY    44  39  81 N6        30.07R
WAUPACA        CLOUDY    49  41  73 N5        30.06R
WAUTOMA        CLOUDY    49  40  71 N5        30.06R
WISC RAPIDS    CLOUDY    48  40  73 NE5       30.07S
CAMP DOUGLAS   CLOUDY    40  40 100 NE3       30.06R
$$

WIZ011>013-019>022-031-037>040-048>050-210600-
NORTHEAST WISCONSIN

CITY           SKY/WX    TMP DP  RH WIND       PRES   REMARKS
ANTIGO         MOCLDY    39  37  91 N7        30.06S WCI  34
SHAWANO        CLOUDY    47  38  72 N7        30.06S
OCONTO         CLOUDY    44  40  87 N3        30.04S
STURGEON BAY   CLOUDY    45  37  76 N15G22    30.03S
GREEN BAY      CLOUDY    46  39  76 N8        30.04S
MANITOWOC      CLOUDY    48  42  80 N6        30.03R
APPLETON       CLOUDY    45  37  76 N10       30.05R
CLINTONVILLE   CLOUDY    46  37  71 N7        30.06R
OSHKOSH        CLOUDY    48  40  73 N10       30.03S
$$

WIZ032>034-041-042-053>061-210600-
SOUTHWEST WISCONSIN

CITY           SKY/WX    TMP DP  RH WIND       PRES   REMARKS
LA CROSSE      CLEAR     43  40  89 CALM      30.06S
SPARTA         CLEAR     39  37  92 CALM      30.07S
VIROQUA        CLEAR     43  38  83 CALM      30.05S
BOSCOBEL       CLEAR     40  38  93 CALM      30.06S FOG
PRAIRIE DU CHI CLEAR     43  39  86 CALM      30.05S
PLATTEVILLE    CLEAR     45  39  80 CALM      30.05S
$$

WIZ056-057-062-063-064-067-068-210600-
SOUTH CENTRAL WISCONSIN

CITY           SKY/WX    TMP DP  RH WIND       PRES   REMARKS
REEDSBURG      MOCLDY    48  40  73 N6        30.05S
BARABOO/DELLS  CLOUDY    49  38  66 N3        30.05S
LONE ROCK      CLEAR     46  36  68 N3        30.04S
MINERAL POINT  CLEAR     46  37  71 N5        30.04S
MADISON        CLOUDY    50  39  66 N5        30.03S
MIDDLETON      MOCLDY    50  39  66 N5        30.04S
WATERTOWN      CLOUDY    48  43  80 N7        30.02S
MONROE         MOCLDY    46  41  81 N8        30.03S
JANESVILLE     CLOUDY    52  41  66 N3        30.01S
$$

WIZ051-052-058>065-066-070>072-210600-
SOUTHEAST WISCONSIN

CITY           SKY/WX    TMP DP  RH WIND       PRES   REMARKS
MILWAUKEE      CLOUDY    49  42  77 NW6       30.02R
WAUKESHA       CLOUDY    46  39  76 N9G17     30.02S
MILWAUKEE/TIMM CLOUDY    46  41  81 NW8       30.02F
RACINE         CLOUDY    51  42  71 N13G21    30.02S
BURLINGTON     CLOUDY    48  41  76 N5        30.01S
KENOSHA        CLOUDY    50  43  77 N3        30.00F
FOND DU LAC    CLOUDY    48  42  80 N7        30.03S
SHEBOYGAN      CLOUDY    47  41  80 N8        30.02R
WEST BEND      CLOUDY    46  39  76 N5        30.02S
JUNEAU         CLOUDY    47  43  85 N5        30.04S
$$

LSZ147-162-210600-
LAKE SUPERIOR

STATION/POSITION TIME  TEMP    WIND        PRES    WAVE
                       AIR SEA DIR/SP/G            HT/PER
                 (UTC) (F)     (DEG/KT/KT) (MB)    (FT/S)
W MID LAKE BUOY  0450   43 46   30/ 16/ 17 1021.0R   3/ 5
DEVILS ISLAND    0500   44      60/ 20/ 22 1021.3R
PORT WING        0400   49      60/  9/ 13 1020.3
SAXON HARBOR     0400   47      60/ 15/ 19 1020.0
$$

LMZ867-665-643>646-210600-
LAKE MICHIGAN

STATION/POSITION TIME  TEMP    WIND        PRES    WAVE
                       AIR SEA DIR/SP/G            HT/PER
                 (UTC) (F)     (DEG/KT/KT) (MB)    (FT/S)
CHAMBERS ISLAND  0400   47     330/ 17/ 20 1017.3
N MID LAKE BUOY  0450   47 51  350/ 19/ 23 1015.5R   4/ 5
NORTHPORT PIER   0406   47     340/ 22/ 26 1016.3R
KEWAUNEE LAKESHO 0400   47     350/  5/  8 1015.7R
SHEBOYGAN LAKESH 0500   49 50  340/ 11/ 14 1016.8S
PORT WASHINGTON  0400   50     320/  5/  7 1016.9S
ATWATER BUOY     0500   51     340/ 10/ 14 1017.1
MILWAUKEE LAKESH 0500   50     320/  7/ 10   N/A
S MID LAKE BUOY  0450   51 54  350/ 17/ 23 1015.2F   3/ 6
KENOSHA   LAKESH 0500   51     340/  5/  8 1015.9S
$$

TC  - TEMPERATURE IN CELSIUS
VSB - VISIBILITY IN STATUTE MILES
WCI - WIND CHILL INDEX
HX  - HEAT INDEX




USA.gov is the U.S. government's official web portal to all federal, state and local government web resources and services.